星链-2689 (STARLINK-2689 )

导读 | 星芒AI

STARLINK-2689 是 SpaceX Starlink 项目中的一颗低轨通信卫星,旨在为全球用户提供高速互联网服务。该卫星属于 Starlink 群体部署的一部分,运行在约 550 公里的近地轨道上,采用先进的推进和通信技术,具备自动避障功能。其部署有助于扩大 Starlink 的覆盖范围,提升网络性能,并支持偏远地区的互联网接入。该卫星于 2023 年发射,是 SpaceX 打造全球宽带网络计划的重要组成部分。

基本信息
目录编号:
48463
目录名称:
STARLINK-2689
国际标识:
2021-040AM
轨道中心:
EARTH
卫星名称:
星链-2689
卫星全名:
星链-2689 (STARLINK-2689 )
卫星状态:
已陨落 最后检测时间 2025-01-10
发射日期:
2021-05-09 UTC
国别 :
美国 (US)
星等 :
--
轨道信息
数据来源 国际轨道数据
星历时间: 2025-01-10T16:04:28+0800
轨道信息已过期293天
半长轴: 6549.708km
偏心率: 0.0004656
轨道倾角: 53.032°
近地点辐角 232.157°
升交点赤经 272.232°
平近点角 249.914°
近地点: 168.523km
远地点: 174.623km
周期: 87.921分钟
每日圈数: 16.378341
详细信息
固有亮度:
5
最大亮度:
2.5
卫星平台:
Starlink V1.0
覆盖范围:
全球
运营商:
太空探索技术公司
运营商所在国:
美国
制造商(研发单位):
太空探索技术公司
制造商所在国:
美国
使用方式:
暂无
卫星简介
星链(Starlink)计划是由太空探索技术公司(SpaceX)提出的一个巨型低轨卫星互联网星座项目,计划在2019年至2024年间在太空搭建由约1.2万颗卫星组成的“星链”网络,其中1584颗将部署在地球上空550千米处的近地轨道,并从2020年开始工作。该卫星仍在工作。